Retour au catalogue

ONEWEB-0387

ActifCommunicationsPO
NORAD 49313·PAYLOAD·🇬🇧 United Kingdom

Lancé Oct 14, 2021 depuis Vostochny Cosmodrome

Loading…

Prochains Passages (prochaines 24 heures)

TLE

FraisSource: CelesTrak SupGP

Époque: Sep 15, 2026, 01:55 UTC

1 49313C 21090AL  26258.08037454 -.00002394  00000+0 -58941-2 0  2582
2 49313  87.9145 256.5163 0002034  99.7111 339.4404 13.20776577    14

Suivez ONEWEB-0387 en temps réel avec AllMySat

Download on the App Store